Regional Weather Roundup
Issued by NWS Memphis, TN

Home | Current Version | Previous Version | Text Only | Print | Product List | Glossary On
Versions: 1 2 3 4 5 6 7 8 9 10 11 12 13 14 15 16 17 18 19 20 21 22 23 24 25 26 27 28 29 30 31 32 33 34 35 36 37 38 39 40 41 42 43 44 45 46 47 48 49 50
310
ASUS44 KMEG 181310
RWRMEG
MEMPHIS CWA HOURLY WEATHER ROUNDUP
NATIONAL WEATHER SERVICE MEMPHIS TN
700 AM CST WED JAN 18 2017

...WEST TENNESSEE...

CITY           SKY/WX    TMP DP  RH WIND       PRES   REMARKS
MEMPHIS INTL   CLOUDY    47  41  80 E5        30.21R
NWS MEMPHIS      N/A     44 N/A N/A MISG        N/A
JACKSON        CLOUDY    43  42  97 CALM      30.21S
BOLIVAR        CLOUDY    43  41  93 NE3       30.20R
DYERSBURG      CLOUDY    43  37  81 CALM      30.22R
UNION CITY     CLOUDY    43  43 100 CALM      30.21R
PARIS          CLOUDY    39  37  93 CALM      30.20S
HUNTINGDON     CLOUDY    45  41  87 CALM      30.21R


...EASTERN ARKANSAS...

CITY           SKY/WX    TMP DP  RH WIND       PRES   REMARKS
JONESBORO      CLOUDY    42  39  89 N5        30.23R
WEST MEMPHIS   CLOUDY    45  42  89 NE3       30.21R
BATESVILLE     CLOUDY    41  36  81 CALM      30.25R
NEWPORT        CLOUDY    41  39  93 NW6       30.26R
WALNUT RIDGE   CLOUDY    41  36  81 N6        30.23R
BLYTHEVILLE    CLOUDY    44  41  89 NE5       30.23R
SEARCY         CLOUDY    42  40  92 N6        30.26R
STUTTGART      CLOUDY    46  37  71 NE10      30.22S
PINE BLUFF     LGT RAIN  47  45  93 NE9       30.19R
MONTICELLO     LGT RAIN  50  47  89 NE6       30.18R


...NORTH MISSISSIPPI...

CITY           SKY/WX    TMP DP  RH WIND       PRES   REMARKS
TUPELO         CLOUDY    51  47  86 N5        30.19R
OXFORD         CLOUDY    48  45  87 N3        30.21R
BATESVILLE     CLOUDY    49  46  87 NE3       30.20S
OLIVE BRANCH   MOCLDY   N/A N/A N/A CALM      30.21
TUNICA         CLOUDY    46  43  87 NE7       30.22R
CLARKSDALE     CLOUDY    50  48  93 N8        30.20R
CORINTH        CLOUDY    46  43  87 NE8       30.19R
GREENWOOD      CLOUDY    53  48  83 SE3       30.17R
COLUMBUS       CLOUDY    72  52  49 CALM      30.17R
STARKVILLE     CLOUDY    54  52  94 CALM      30.18F
GOLDEN TRIANGL CLOUDY    55  50  82 N7        30.12S


...SOUTHEAST MISSOURI...

CITY           SKY/WX    TMP DP  RH WIND       PRES   REMARKS
KENNETT        CLOUDY    45  41  87 NE6       30.22R
WEST PLAINS    CLOUDY    35  35 100 N5        30.21R FOG     WCI  31
POPLAR BLUFF   CLOUDY    41  38  89 N8        30.22S
CAPE GIRARDEAU CLOUDY    40  35  83 NE8       30.23S WCI  34


...NORTHWEST ALABAMA...

CITY           SKY/WX    TMP DP  RH WIND       PRES   REMARKS
MUSCLE SHOALS  CLOUDY    51  44  77 CALM      30.19R


...MIDDLE TENNESSEE...

CITY           SKY/WX    TMP DP  RH WIND       PRES   REMARKS
NASHVILLE      CLOUDY    45  39  79 NW6       30.22R
CLARKSVILLE    CLOUDY    44  38  79 NE3       30.21S
COLUMBIA       CLOUDY    46  46 100 CALM      30.18S


...WESTERN KENTUCKY...

CITY           SKY/WX    TMP DP  RH WIND       PRES   REMARKS
PADUCAH        CLOUDY    42  36  79 N6        30.22R
FORT CAMPBELL  CLOUDY    43  40  86 CALM      30.21R


...CENTRAL ARKANSAS...

CITY           SKY/WX    TMP DP  RH WIND       PRES   REMARKS
LITTLE ROCK    LGT RAIN  44  43  96 N8        30.24R


SKY/WX REPORTED AS FAIR MEANS FEW OR NO CLOUDS BELOW
12 THOUSAND FEET.





USA.gov is the U.S. government's official web portal to all federal, state and local government web resources and services.